290  
ASUS41 KALY 140710  
RWRALY  
 
NEW YORK STATE HOURLY WEATHER ROUNDUP  
NATIONAL WEATHER SERVICE ALBANY NY  
300 AM EDT FRI AUG 14 2020  
 
NOTE: "FAIR" INDICATES FEW OR NO CLOUDS BELOW 12,000 FEET WITH NO  
SIGNIFICANT WEATHER AND/OR NO S TO VISIBILITY
.  
 
NYZ032-033-038>043-046>054-057>066-NYZ062>081-082-084-140800-  
EAST  
 
 
CITY SKY/WX TMP DP RH WIND PRES REMARKS
 
ALBANY CLEAR 64 64 100 CALM 30.09S  
GLENS FALLS PTCLDY 63 61 93 CALM 30.09F  
POUGHKEEPSIE PTCLDY 66 64 93 CALM 30.06S  
NEWBURGH PTCLDY 68 68 100 CALM 30.08S  
MONTGOMERY CLEAR 63 63 100 CALM 30.07S  
WHITE PLAINS CLOUDY 71 68 90 NW6 30.05F  
ISLIP MOCLDY 73 72 96 NE7 30.03F  
NEW YORK CITY MOCLDY 76 71 85 NE6 30.03F  
CENTRAL PARK N/A 75 70 84 N3 30.06F  

 
 
NYZ005>009-017-018-044>046-055-056-140800-  
CENTRAL  
 
 
CITY SKY/WX TMP DP RH WIND PRES REMARKS
 
FULTON CLEAR 64 59 83 CALM 30.10F  
SYRACUSE PTCLDY 67 62 84 CALM 30.10S  
ROME MOCLDY 66 61 84 E3 30.11S  
ELMIRA PTCLDY 60 59 96 CALM 30.10F  
BINGHAMTON CLEAR 65 58 78 E3 30.13F  
MONTICELLO PTCLDY 60 59 96 N3 30.13F  

 
 
NYZ026>034-041>043-087-140800-  
NORTH  
 
 
CITY SKY/WX TMP DP RH WIND PRES REMARKS
 
WATERTOWN PTCLDY 60 56 86 NE3 30.10F  
FORT DRUM NOT AVBL  
OGDENSBURG FAIR 57 57 100 CALM 30.10F  
MASSENA MOCLDY 61 58 90 CALM 30.13F  
SARANAC LAKE PTCLDY 50 47 89 CALM 30.16F  
PLATTSBURGH PTCLDY 63 62 97 CALM 30.11S  

 
 
NYZ001>004-010>016-019>021-085-140800-  
WEST  
 
 
CITY SKY/WX TMP DP RH WIND PRES REMARKS
 
NIAGARA FALLS PTCLDY 65 60 84 E5 30.10S  
BUFFALO PTCLDY 69 58 67 NE5 30.11S  
DUNKIRK CLEAR 66 58 75 E8 30.07F  
JAMESTOWN CLEAR 68 56 65 E7 30.12F  
WELLSVILLE PTCLDY 62 55 77 CALM 30.16F  
ROCHESTER PTCLDY 64 61 90 SW3 30.11F  
PENN YAN CLEAR 62 58 86 CALM 30.12S  

 
 
KEY  
WCI = WIND CHILL INDEX  
VSB = VISIBILITY  
HX = HEAT INDEX  

 
 
 
CLICK HERE TO GO TO PREVIOUS BULLETINS.

The Nexlab NY Page
The Nexlab VT Page
The Nexlab MA Page
The Nexlab CT Page Main Text Page